Location: Buckeye Ditch
(40.9104°N, 122.9517°W)
Time: 18:19:40
(UTC+00:00)

Vanguard 1 - Pass Details

Date: 21 May 2025
Orbit: 649 x 3822 km, 34.3° (Epoch: 15 June)

Event Time Altitude Azimuth Distance (km) Brightness Sun altitude
Rises 07:03:36 0° 276° (W) 4,989 14.0 -27.0°
Reaches altitude 10° 07:08:26 10° 262° (W) 3,415 12.9 -27.3°
Enters shadow 07:12:10 18° 237° (WSW) 2,420 11.9 -27.5°
